Location: Paris
(48.6709°N, 2.3750°E)
Time: 06:27:39
(UTC+02:00)

YUBILEINY - Pass Details

Date: 28 June 2022
Orbit: 1478 x 1509 km, 82.5° (Epoch: 17 August)

Event Time Altitude Azimuth Distance (km) Brightness Sun altitude
Rises 04:28:35 0° 351° (N) 4,659 ? -10.2°
Reaches altitude 10° 04:32:21 10° 5° (N) 3,671 ? -9.8°
Maximum altitude 04:39:11 24° 57° (ENE) 2,719 ? -9.1°
Drops below altitude 10° 04:45:56 10° 108° (ESE) 3,641 ? -8.4°
Sets 04:49:36 0° 122° (ESE) 4,612 ? -8.0°
